Flag for U.S.A. Weather past 2 weeks in Jersey City, New Jersey, U.S.A.

Now
76 °F

Partly sunny.


Feels Like: 78 °F
Forecast: 62 / 77 °F
Wind: 10 mph from Southeast

Location: Newark International Airport

Current Time: Aug 29, 2014 at 6:44:35 PM

Latest Report: Aug 29, 2014 at 5:51 PM


Visibility: 10 mi

Pressure: 30.17 "Hg

Humidity: 43%

Dew point: 52 °F

Location of Jersey CityLocation

Historic Weather in Jersey City — Graph

°F

Jersey City temperature yesterday

Maximum temperature yesterday: 82 °F (at 3:51 PM)
Minimum temperature yesterday: 67 °F (at 11:51 PM)
Average temperature yesterday: 75 °F

Past Weeks' High & Low Weather Summary

 TemperatureHumidityPressure
High92 °F (Aug 27, 1:51 PM)90% (Aug 22, 12:51 AM)30.19 "Hg (Aug 22, 12:51 AM)
Low58 °F (Aug 16, 6:51 AM)32% (Aug 28, 3:51 PM)29.81 "Hg (Aug 14, 5:51 PM)
Average74 °F60%30.00 "Hg
* Reported Aug 14 5:51 PM — Aug 29 5:51 PM, Jersey City, Weather by CustomWeather, © 2014

Note: Actual official high and low records may vary slightly from our data, if they occured in-between our weather recording intervals... More about our weather records

Advertising

Jersey City weather history for previous 24 hours

 ConditionsComfort  
Time TempWeatherWind HumidityBarometerVisibility
5:51 PM
Aug 29
76 °FPartly sunny.10 mph43%30.17 "Hg10 mi
4:51 PM77 °FPartly sunny.8 mph42%30.16 "Hg10 mi
2:51 PM78 °FPartly sunny.5 mph35%30.16 "Hg10 mi
1:51 PM77 °FScattered clouds.3 mph36%30.17 "Hg10 mi
12:51 PM75 °FScattered clouds.5 mph39%30.18 "Hg10 mi
11:51 AM75 °FScattered clouds.3 mph39%30.19 "Hg10 mi
10:51 AM72 °FScattered clouds.7 mph44%30.19 "Hg10 mi
9:51 AM71 °FScattered clouds.7 mph47%30.19 "Hg10 mi
8:51 AM68 °FPartly sunny.7 mph55%30.18 "Hg10 mi
7:51 AM66 °FPartly sunny.3 mph56%30.17 "Hg10 mi
6:51 AM63 °FPassing clouds.6 mph65%30.14 "Hg10 mi
5:51 AM62 °FPassing clouds.6 mph67%30.12 "Hg10 mi
4:51 AM63 °FClear.8 mph63%30.10 "Hg10 mi
3:51 AM61 °FClear.7 mph65%30.09 "Hg10 mi
2:51 AM64 °FClear.8 mph58%30.08 "Hg10 mi
1:51 AM65 °FPassing clouds.9 mph56%30.08 "Hg10 mi
12:51 AM66 °FPassing clouds.10 mph52%30.07 "Hg10 mi
11:51 PM
Aug 28
67 °FPassing clouds.12 mph49%30.06 "Hg10 mi
10:51 PM68 °FPassing clouds.10 mph45%30.05 "Hg10 mi
9:51 PM70 °FPassing clouds.17 mph44%30.03 "Hg10 mi
8:51 PM73 °FPassing clouds.15 mph43%30.00 "Hg10 mi
7:51 PM75 °FScattered clouds.16 mph40%29.96 "Hg10 mi
6:51 PM78 °FScattered clouds.17 mph35%29.93 "Hg10 mi
Weather by CustomWeather, © 2014

See weather overviewHow to use our weather pages